Time,TemperatureF,DewpointF,PressureIn,WindDirection,WindDirectionDegrees,WindSpeedMPH,WindSpeedGustMPH,Humidity,HourlyPrecipIn,Conditions,Clouds,dailyrainin,SoftwareType,DateUTC
2013-04-12 00:01:00,45.0,22.0,-100.00,SE,131,2.0,7.0,40,-99.99,,,-99.99,,2013-04-12 07:01:00,
2013-04-12 00:11:00,45.0,22.0,-100.00,SE,131,2.0,7.0,40,-99.99,,,-99.99,,2013-04-12 07:11:00,
2013-04-12 00:22:00,45.0,22.0,-100.00,SE,134,2.0,13.0,40,-99.99,,,-99.99,,2013-04-12 07:22:00,
2013-04-12 00:32:00,45.0,22.0,-100.00,SE,134,2.0,13.0,40,-99.99,,,-99.99,,2013-04-12 07:32:00,
2013-04-12 00:42:00,44.0,22.0,-100.00,East,99,1.0,7.0,41,-99.99,,,-99.99,,2013-04-12 07:42:00,
2013-04-12 00:52:00,44.0,22.0,-100.00,East,99,1.0,7.0,41,-99.99,,,-99.99,,2013-04-12 07:52:00,
2013-04-12 01:03:00,44.0,21.0,-100.00,NE,47,2.0,5.0,40,-99.99,,,-99.99,,2013-04-12 08:03:00,
2013-04-12 01:12:00,44.0,21.0,-100.00,NE,47,2.0,5.0,40,-99.99,,,-99.99,,2013-04-12 08:12:00,
2013-04-12 01:22:00,44.0,21.0,-100.00,NE,47,2.0,5.0,40,-99.99,,,-99.99,,2013-04-12 08:22:00,
2013-04-12 01:32:00,44.0,21.0,-100.00,NE,47,2.0,5.0,40,-99.99,,,-99.99,,2013-04-12 08:32:00,
2013-04-12 06:22:00,35.0,26.0,-100.00,South,169,1.0,3.0,68,-99.99,,,-99.99,,2013-04-12 13:22:00,
2013-04-12 06:32:00,35.0,26.0,-100.00,South,169,1.0,3.0,68,-99.99,,,-99.99,,2013-04-12 13:32:00,
2013-04-12 06:42:00,36.0,29.0,-100.00,SSE,167,1.0,2.0,74,-99.99,,,-99.99,,2013-04-12 13:42:00,
2013-04-12 06:52:00,36.0,29.0,-100.00,SSE,167,1.0,2.0,74,-99.99,,,-99.99,,2013-04-12 13:52:00,
2013-04-12 07:03:00,35.0,27.0,-100.00,SSE,167,1.0,3.0,73,-99.99,,,-99.99,,2013-04-12 14:03:00,
2013-04-12 07:12:00,35.0,27.0,-100.00,SSE,167,1.0,3.0,73,-99.99,,,-99.99,,2013-04-12 14:12:00,
2013-04-12 07:22:00,35.0,28.0,-100.00,SSE,148,0.0,1.0,74,-99.99,,,-99.99,,2013-04-12 14:22:00,
2013-04-12 07:32:00,35.0,28.0,-100.00,SSE,148,0.0,1.0,74,-99.99,,,-99.99,,2013-04-12 14:32:00,
2013-04-12 07:42:00,35.0,28.0,-100.00,SSE,148,0.0,1.0,74,-99.99,,,-99.99,,2013-04-12 14:42:00,
2013-04-12 07:52:00,35.0,28.0,-100.00,SSE,148,0.0,1.0,74,-99.99,,,-99.99,,2013-04-12 14:52:00,
2013-04-12 09:53:00,41.0,31.0,-100.00,NW,318,1.0,3.0,68,-99.99,,,-99.99,,2013-04-12 16:53:00,
2013-04-12 10:02:00,44.0,30.0,-100.00,NW,304,1.0,4.0,58,-99.99,,,-99.99,,2013-04-12 17:02:00,
2013-04-12 10:03:00,41.0,31.0,-100.00,NW,318,1.0,3.0,68,-99.99,,,-99.99,,2013-04-12 17:03:00,
2013-04-12 10:12:00,42.0,30.0,-100.00,North,352,1.0,5.0,61,-99.99,,,-99.99,,2013-04-12 17:12:00,
2013-04-12 10:22:00,42.0,30.0,-100.00,North,352,1.0,5.0,61,-99.99,,,-99.99,,2013-04-12 17:22:00,
2013-04-12 10:33:00,44.0,30.0,-100.00,NW,304,1.0,4.0,58,-99.99,,,-99.99,,2013-04-12 17:33:00,
2013-04-12 10:44:00,44.0,30.0,-100.00,NW,304,1.0,4.0,58,-99.99,,,-99.99,,2013-04-12 17:44:00,
2013-04-12 12:26:00,48.0,33.0,-100.00,WNW,295,2.0,5.0,55,-99.99,,,-99.99,,2013-04-12 19:26:00,
2013-04-12 12:32:00,48.0,33.0,-100.00,WNW,295,2.0,5.0,55,-99.99,,,-99.99,,2013-04-12 19:32:00,
2013-04-12 12:42:00,48.0,33.0,-100.00,WNW,295,2.0,5.0,55,-99.99,,,-99.99,,2013-04-12 19:42:00,
2013-04-12 12:50:00,49.0,34.0,-100.00,West,281,2.0,5.0,57,-99.99,,,-99.99,,2013-04-12 19:50:00,
2013-04-12 13:02:00,48.0,32.0,-100.00,WNW,285,2.0,5.0,54,-99.99,,,-99.99,,2013-04-12 20:02:00,
2013-04-12 13:12:00,48.0,32.0,-100.00,WNW,285,2.0,5.0,54,-99.99,,,-99.99,,2013-04-12 20:12:00,
2013-04-12 13:22:00,49.0,34.0,-100.00,West,281,2.0,5.0,57,-99.99,,,-99.99,,2013-04-12 20:22:00,
2013-04-12 13:32:00,49.0,34.0,-100.00,West,281,2.0,5.0,57,-99.99,,,-99.99,,2013-04-12 20:32:00,
2013-04-12 13:42:00,49.0,34.0,-100.00,West,281,2.0,5.0,57,-99.99,,,-99.99,,2013-04-12 20:42:00,
2013-04-12 15:12:00,55.0,27.0,-100.00,NW,311,2.0,5.0,34,-99.99,,,-99.99,,2013-04-12 22:12:00,
2013-04-12 15:22:00,55.0,27.0,-100.00,NW,311,2.0,5.0,34,-99.99,,,-99.99,,2013-04-12 22:22:00,
2013-04-12 15:32:00,56.0,29.0,-100.00,NW,304,1.0,4.0,35,-99.99,,,-99.99,,2013-04-12 22:32:00,
2013-04-12 15:42:00,56.0,29.0,-100.00,NW,304,1.0,4.0,35,-99.99,,,-99.99,,2013-04-12 22:42:00,
2013-04-12 15:52:00,58.0,28.0,-100.00,WNW,296,1.0,4.0,31,-99.99,,,-99.99,,2013-04-12 22:52:00,
2013-04-12 16:03:00,58.0,28.0,-100.00,WNW,296,1.0,4.0,31,-99.99,,,-99.99,,2013-04-12 23:03:00,
2013-04-12 16:12:00,58.0,28.0,-100.00,NW,325,1.0,4.0,32,-99.99,,,-99.99,,2013-04-12 23:12:00,
2013-04-12 16:22:00,58.0,28.0,-100.00,NW,325,1.0,4.0,32,-99.99,,,-99.99,,2013-04-12 23:22:00,
2013-04-12 16:32:00,58.0,28.0,-100.00,NW,325,1.0,4.0,32,-99.99,,,-99.99,,2013-04-12 23:32:00,
2013-04-12 16:42:00,58.0,28.0,-100.00,NW,325,1.0,4.0,32,-99.99,,,-99.99,,2013-04-12 23:42:00,
2013-04-12 18:43:00,56.0,39.0,-100.00,NNE,32,2.0,5.0,52,-99.99,,,-99.99,,2013-04-13 01:43:00,
2013-04-12 18:52:00,56.0,39.0,-100.00,NNE,32,2.0,5.0,52,-99.99,,,-99.99,,2013-04-13 01:52:00,
2013-04-12 19:02:00,54.0,40.0,-100.00,NNE,23,1.0,5.0,58,-99.99,,,-99.99,,2013-04-13 02:02:00,
2013-04-12 19:12:00,54.0,40.0,-100.00,NNE,23,1.0,5.0,58,-99.99,,,-99.99,,2013-04-13 02:12:00,
2013-04-12 19:22:00,54.0,38.0,-100.00,East,96,0.0,3.0,55,-99.99,,,-99.99,,2013-04-13 02:22:00,
2013-04-12 19:32:00,54.0,38.0,-100.00,East,96,0.0,3.0,55,-99.99,,,-99.99,,2013-04-13 02:32:00,
2013-04-12 19:42:00,54.0,38.0,-100.00,East,96,0.0,3.0,55,-99.99,,,-99.99,,2013-04-13 02:42:00,
2013-04-12 21:33:00,45.0,37.0,-100.00,South,174,0.0,2.0,74,-99.99,,,-99.99,,2013-04-13 04:33:00,
2013-04-12 21:42:00,45.0,37.0,-100.00,South,174,0.0,2.0,74,-99.99,,,-99.99,,2013-04-13 04:42:00,
2013-04-12 21:53:00,45.0,37.0,-100.00,South,172,1.0,2.0,74,-99.99,,,-99.99,,2013-04-13 04:53:00,
2013-04-12 22:02:00,45.0,37.0,-100.00,South,172,1.0,2.0,74,-99.99,,,-99.99,,2013-04-13 05:02:00,
2013-04-12 22:12:00,45.0,37.0,-100.00,South,172,1.0,2.0,74,-99.99,,,-99.99,,2013-04-13 05:12:00,
2013-04-12 22:22:00,45.0,37.0,-100.00,South,172,1.0,2.0,74,-99.99,,,-99.99,,2013-04-13 05:22:00,
2013-04-12 23:34:00,45.0,34.0,-100.00,SSE,162,1.0,3.0,64,-99.99,,,-99.99,,2013-04-13 06:34:00,
2013-04-12 23:45:00,45.0,34.0,-100.00,SSE,162,1.0,3.0,64,-99.99,,,-99.99,,2013-04-13 06:45:00,
2013-04-12 23:51:00,44.0,33.0,-100.00,SSE,152,1.0,3.0,66,-99.99,,,-99.99,,2013-04-13 06:51:00,